Location: Unspecified
(0.0000°N, 0.0000°E)
Time: 04:46:23
(UTC+00:00)

SR - Visible Passes

Search period start: 27 July 2017 00:00
Search period end: 06 August 2017 00:00
Orbit: 577 x 880 km, 66.7° (Epoch: 25 July)

Date Brightness Start Highest point End Pass type
(mag) Time Alt. Az. Time Alt. Az. Time Alt. Az.
27 Jul ? 04:50:14 12° SSW 04:55:34 82° ESE 05:01:29 10° NNE visible
28 Jul ? 04:03:10 21° SSE 04:06:12 34° ESE 04:11:29 10° NE visible
29 Jul ? 03:16:06 14° ESE 03:16:50 14° ESE 03:19:52 10° ENE visible
29 Jul ? 04:55:35 24° SW 04:58:40 45° WNW 05:04:18 10° N visible
30 Jul ? 04:08:28 65° S 04:09:17 77° ESE 04:15:12 10° NNE visible
31 Jul ? 03:21:18 29° E 03:21:18 29° E 03:25:07 10° NE visible
31 Jul ? 05:00:47 20° W 05:01:49 21° WNW 05:06:06 10° NNW visible
01 Aug ? 04:13:34 42° NW 04:13:34 42° NW 04:18:04 10° N visible
02 Aug ? 03:26:16 28° NNE 03:26:16 28° NNE 03:28:55 10° NNE visible
03 Aug ? 04:18:23 16° NNW 04:18:23 16° NNW 04:19:58 10° NNW visible
04 Aug ? 03:30:56 15° N 03:30:56 15° N 03:31:50 10° N visible
